Location: Fredericksburg
(30.2750°N, 98.8720°W)
Time: 04:05:10
(UTC-05:00)

PCSat - Pass Details

Date: 28 May 2018
Orbit: 785 x 795 km, 67.1° (Epoch: 20 October)

Event Time Altitude Azimuth Distance (km) Brightness Sun altitude
Exits shadow 03:43:24 19° 118° (ESE) 1,780 11.4 -29.5°
Maximum altitude 03:44:15 20° 105° (ESE) 1,747 11.5 -29.4°
Drops below altitude 10° 03:48:03 10° 60° (ENE) 2,341 12.8 -28.9°
Sets 03:51:03 0° 44° (NE) 3,275 14.0 -28.5°
